User: anonymous   Login
Location: Rounton
(54.4000°N, 1.3500°W)
Time: 02:07:52
(UTC+00:00)
Language:

Envisat - Orbit

View from above orbital plane
View from above orbital plane
View from above satellite
View from above satellite

Ground track
Ground track

The orbit data is extracted from the following two-line orbital elements,

1 27386U 02009A   21332.46763409  .00000073  00000-0  37560-4 0  9992
2 27386  98.1636 318.2632 0001318  89.8124  82.2828 14.38057035 34576
Epoch (UTC): 28 November 2021 11:13:23
Eccentricity: 0.0001318
inclination: 98.1636°
perigee height: 764 km
apogee height: 766 km
right ascension of ascending node: 318.2632°
argument of perigee: 89.8124°
revolutions per day: 14.38057035
mean anomaly at epoch: 82.2828°
orbit number at epoch: 3457

The dashed part of the orbit path shows where the satellite is in the earth's shadow,  

DLR